Weather in Bathurst

Australia     33°24′40″S   149°34′43″E
temp.,
°C
wind,
m/s
gust,
m/s
humid.,
%
clouds,
%
prec.,
mm/h
press.,
hPa
HPBL,
m
13 april, tue
tue1301:00+3sse11750 0.0 102310
04:00+2se11810 0.0 102310
07:00+3se11793 0.0 102410
10:00+12nne235178 0.0 1022457
13:00+17nw34375 0.0 10191202
16:00+17nw344275 0.0 10171086
19:00+10wnw2256100 0.0 101926
22:00+7nw115843 0.0 102111
14 april, wed
wed1401:00+6nnw11645 0.0 102011
04:00+5nw11645 0.0 101911
07:00+6nw12635 0.0 101925
10:00+16nw610395 0.0 1017856
13:00+19wnw710325 0.0 10151558
16:00+17w5104058 0.0 1015686
19:00+14w3736100 0.0 1016229
22:00+13w25370 0.0 1017144
15 april, thu
thu1501:00+7wsw11550 0.0 101711
04:00+6sw11702 0.0 101711
07:00+6ssw11780 0.0 101914
10:00+15wsw46480 0.0 10171062
13:00+17wsw67425 0.0 10151352
16:00+16wsw57491 0.0 10151390
19:00+8sw356983 0.0 101878
22:00+6ssw3375100 0.0 102131
16 april, fri
fri1601:00+5s2281100 0.0 102113
04:00
07:00+4se228399 0.0 102316
10:00+14e5761100 0.0 10211025
13:00+17e7651100 0.0 10191769
16:00+13e6874100 0.2 10201042
19:00+10ese41087100 0.1 1022576
22:00+10e3988100 0.1 1023520
17 april, sat
sat1701:00+10ese2592100 0.1 1022248
04:00+10se2293100 0.5 102044
07:00+9e1297100 2.9 1021102
10:00+10ese1393100 7.3 1021188
13:00+10e2490100 2.9 1020359
16:00+13se356780 2.9 1019919
19:00+8se22884 0.0 102111
22:00+6s22916 0.0 102212